Regional Weather Roundup
Issued by NWS Wakefield, VA

Home | Current Version | Previous Version | Graphics & Text | Print | Product List | Glossary On
Versions: 1 2 3 4 5 6 7 8 9 10 11 12 13 14 15 16 17 18 19 20 21 22 23 24 25 26 27 28 29 30 31 32 33 34 35 36 37 38 39 40 41 42 43 44 45 46 47 48 49 50
000
ASUS41 KAKQ 230310
RWRAKQ

REGIONAL WEATHER ROUNDUP
NATIONAL WEATHER SERVICE WAKEFIELD VA
1100 PM EDT FRI AUG 22 2014

Note: "fair" indicates few or no clouds below 12,000 feet with no
significant weather and/or obstructions to visibility. * = Denotes
station may not report precipitation (e.g., rain,snow,etc.),
thunder or fog.

VAZ042-051-052>054-056-230400-
NORTHERN VIRGINIA

CITY           SKY/WX    TMP DP  RH WIND       PRES   REMARKS
WASH NATIONAL  CLOUDY    76  69  79 E3        30.01S
DULLES         MOCLDY    73  69  87 SE10      30.00R
FORT BELVOIR   CLEAR     73  70  90 VRB1      30.00S
QUANTICO       CLOUDY    75  70  84 E6        30.00R
FREDERICKSBRG* PTCLDY    73  73  99 CALM      29.98S
STAFFORD*      MOCLDY    72  72 100 CALM      30.03R FOG
WARRENTON      CLOUDY    74  74 100 CALM      29.99R
CULPEPER*      MOCLDY   N/A N/A N/A CALM      30.00R FOG
MANASSAS*      MOCLDY    73  73 100 E3        29.99S
LEESBURG*      CLOUDY    73  72  94 E3        30.01S
WINCHESTER     MOCLDY    72  70  94 CALM      30.00S
$$

VAZ048-049-060>072-079>083-230400-
CENTRAL AND SOUTH CENTRAL VIRGINIA...AND NORTH CENTRAL NORTH CAROLINA

CITY           SKY/WX    TMP DP  RH WIND       PRES   REMARKS
RICHMOND       MOCLDY    74  70  87 CALM      29.98R
CHESTERFIELD*  CLOUDY    75  63  64 CALM      30.00R
HANOVER        PTCLDY    71  70  96 CALM      30.00R FOG
TAPPAHANNOCK*  MOCLDY    73  70  90 NE3       30.00S
CHARLOTTSVILLE CLOUDY    74  70  87 NE3       29.99S
ORANGE*        CLOUDY    70  68  94 CALM      30.01R FOG
LOUISA*        MOCLDY    72  70  94 E3        29.99R
FARMVILLE*     MOCLDY    75  73  94 CALM      29.97S
SOUTH HILL*    MOCLDY    75  75 100 CALM      30.03S
ROANOKE RAPIDS MOCLDY    72  72 100 CALM      29.98R
RALEIGH        MOCLDY    79  73  82 CALM      29.97S
$$

VAZ088>098-230400-
SOUTHEAST VIRGINIA

CITY           SKY/WX    TMP DP  RH WIND       PRES   REMARKS
NORFOLK        MOCLDY    76  71  85 NE6       29.96R
VIRGINIA BEACH MOCLDY    75  71  87 NE5       29.96R
NORFOLK NAVAL  MOCLDY    77  72  84 NE8       29.98R
WEST POINT*      N/A     74  71  90 NE3       29.99S
NEWPORT NEWS   CLEAR     78  72  81 NE5       29.98R
LANGLEY AFB    CLOUDY    76  76 100 E9        29.97R
FORT EUSTIS    CLEAR     75  75 100 NE5       29.96R
WILLIAMSBURG*  PTCLDY    75  73  94 CALM      29.98S
FRANKLIN*      PTCLDY    72  70  94 CALM      29.97S
WAKEFIELD      PTCLDY    72  69  90 CALM      29.97R FOG
$$

VAZ020-022-025-037-045-230400-
WESTERN AND SOUTHWEST VIRGINIA

CITY           SKY/WX    TMP DP  RH WIND       PRES   REMARKS
STAUNTON*      LGT RAIN  73  70  91 CALM      30.03S
HOT SPRINGS VA CLOUDY    65  65 100 W10       30.16F FOG
LYNCHBURG      MOCLDY    75  73  93 CALM      30.01S
DANVILLE       CLOUDY    77  74  90 CALM      29.98S
MARTINSVILLE   CLOUDY    76  76  99 CALM      30.02S FOG
ROANOKE        MOCLDY    75  70  84 W5        30.03R
BLACKSBURG     CLOUDY    72  70  94 NW5       30.10R
DUBLIN*        CLOUDY    72  69  91 SW7       30.10R
MARION*        RAIN      68  66  94 NW3       30.15S
HILLSVILLE*    LGT RAIN  67  66  98 SW3       30.12F
RICHLANDS*     TSTM      71  69  95 CALM      30.14R
WISE*          TSTM      70  70 100 E3        30.17R
ABINGDON*      CLOUDY    73  69  87 CALM      30.10F
$$

MDZ021>025-VAZ099-100-230400-
SOUTHERN MARYLAND AND THE DELMARVA PENINSULA

CITY           SKY/WX    TMP DP  RH WIND       PRES   REMARKS
PATUXENT RIVER CLOUDY    73  69  87 E7        29.99S
BAY BRIDGE APT   N/A     72  66  83 E7        30.01R
LEONARDTOWN    CLOUDY    72  68  88 E6        30.01S
DOVER          CLEAR     69  65  86 VRB3      30.00S
GEORGETOWN     MOCLDY    70  66  87 E13       30.01S
EASTON         CLOUDY    73  71  96 CALM      30.04
CAMBRIDGE      CLEAR     70  68  94 E3        29.99S
SALISBURY      MOCLDY    72  67  84 CALM      30.00R
OCEAN CITY     PTCLDY    73  67  81 NE8       29.99R
WALLOPS ISLAND PTCLDY    74  69  85 E9        29.99R
ACCOMACK*      PTCLDY    70  68  94 E5        29.98R
$$

NCZ012>017-030>032-230400-
EASTERN NORTH CAROLINA

CITY           SKY/WX    TMP DP  RH WIND       PRES   REMARKS
ELIZABETH CITY PTCLDY    76  71  85 N5        29.96R
AHOSKIE*       MOCLDY    73  71  92 CALM      29.97F
EDENTON*       MOCLDY    76  72  86 CALM      29.96S
CURRITUCK*     PTCLDY    74  67  80 CALM      29.97R
KILL DEVIL HLS PTCLDY    77  73  88 CALM      29.94S
MANTEO         PTCLDY    75  73  94 CALM      29.96R
CAPE HATTERAS  PTCLDY    76  73  91 NE5       29.94F
GOLDSBORO      MOCLDY    75  75  98 SW3       29.95R
WASHINGTON     MOCLDY    76  72  86 CALM      29.97S
GREENVILLE     MOCLDY    77  72  83 CALM      29.99R
NEW BERN       PTCLDY    80  73  79 N5        29.97R
WILMINGTON     MOCLDY    74  72  93 SW3       29.96S
$$

VAZ048-230400-
ELSEWHERE

CITY           SKY/WX    TMP DP  RH WIND       PRES   REMARKS
HARRISBURG PA  CLOUDY    73  68  84 SE8       30.00S
BALTIMORE      MOCLDY    73  67  81 E6        30.01R
ANNAPOLIS        N/A     74  68  81 E10       30.01R
ANDREWS AFB    MOCLDY    72  72 100 E7        30.01R
WILMINGTON DE  MOCLDY    71  63  75 E9        30.03S
PHILADELPHIA   CLOUDY    70  61  73 E9        30.04S
WILDWOOD NJ*   CLEAR     70  61  73 NE7       30.01F
ATLANTIC CITY  PTCLDY    64  62  93 NE6       30.02S
HENDERSON NC   PTCLDY    75  72  91 CALM      29.99R
GREENSBORO     CLOUDY    81  71  71 N3        29.99S
ROCKY MOUNT    MOCLDY    76  74  93 CALM      29.97R
FAYETTEVILLE   PTCLDY    77  70  79 S3        29.96S
CHARLOTTE      MOCLDY    83  71  67 W3        29.99S
$$

VAZ100-230400-
MARINE

STATION/POSITION TIME  TEMP    WIND        PRES    WAVE   SWELL
                       AIR SEA DIR/SP/G            HT/PER HT/PER
                 (UTC) (F)     (DEG/KT/KT) (MB)    (FT/S) (FT/S)
44066 TX TWR #4  0300   70 72   50/ 17/ 21 1015.1F   4/ 7   2/ 9
CAPE MAY NJ      0300   70 80   50/  5/  6 1015.6F
LEWES DE         0300   73 76   80/ 11/ 13 1015.6R
15NM E FENWICK I 0300   74 75              1015.1F   3/ 8
OCEAN-CITY-INLET 0300   74 76   70/  9/ 14 1015.0
WACHAPREAGUE VA  0300   75 82   50/ 10/ 14 1015.1R
THOMAS POINT MD  0300   73 78  100/ 11/ 13 1016.5R
GOOSES REEF MD   0300   74     110/ 12/ 14 1016.0S
COVE POINT MD    0300   72     100/ 12/ 13 1015.6R
SOLOMONS ISLAND  0300      80                N/A
BISHOPS HEAD MD  0300   73 79   70/ 11/ 14 1015.0S
PINEY POINT MD   0300          110/  7/  8   N/A
POTOMAC MD       0300   75      90/ 12/ 16 1014.6S
CAMBRIDGE MD     0300   73 79   70/ 10/ 11 1015.4F
LEWISETTA VA     0300   76 80  100/ 12/ 13 1015.1R
RAPPAHANNOCK LGT 0300           60/ 10/ 11 1015.5F
STINGRAY PT      0300   76      80/ 10/ 14 1015.8R
YORK RVR RNG VA  0300   76      70/ 12/ 13 1014.6R
YORKTOWN VA      0300   77 81   70/ 10/ 11 1014.8R
JAMESTOWN VA     0300   74      50/  4/  4   N/A
DOMINION TERM VA 0300   77      40/  4/  7 1014.7R
KIPTOPEKE VA     0300      82   80/  7/ 10   N/A
CHES BAY BRIDGE  0300   76 77   50/ 10/ 12 1014.2R
CAPE HENRY VA    0300   76      60/ 11/ 12 1013.4R
CHESAPEAKE LGHT  0200   76      50/ 11/ 12 1014.9S
WILLOUBY STN VA  0300   77      50/  9/ 10 1013.5R
S CRANEY ISL VA  0300           50/  6/  7 1014.4R
CAPE HENRY BUOY  0300      78                N/A     2/ 8
1ST LANDING BUOY 0300   77      70/ 10/ 12 1014.4R
CAPE CHARLES BUO 0300      78                N/A     2/ 7   2/ 7
OFFSHORE WE BUOY 0300      78                N/A     2/ 8   2/ 8
64NM E OF VA BCH 0300   77 78   20/  8/  8 1013.6R   2/ 8   2/ 8
DUCK PIER NC     0300   78 81   30/  6/  7 1013.5R
44056 DUCK FRF   0200                        N/A     2/ 7
OREGON INLET NC  0300   78 84   10/  6/  8 1014.0R
HATTERAS NC      0300   80 83   40/  5/  6 1014.4R
DIAMOND SHLS NC  0300   79     350/  8/ 10 1013.8R   2/ 8   2/ 8
CAPE LOOKOUT NC  0200   83     290/  6/  7 1013.9R
$$



USA.gov is the U.S. government's official web portal to all federal, state and local government web resources and services.